Probability
3 6 9 8 7 7 8 9 9 7 5 4 3 2 2 1 0 0 0 0 0 0 0 0 0 0 0 0 0 0 0 0 0 0 0 0 0 0 0 0 0 0 0
5 8 11 11 9 8 8 8 7 7 5 4 3 1 1 0 0 0 0 0 0 0 0 0 0 0 0 0 0 0 0 0 0 0 0 0 0 0 0 0 0 0 0
9 10 12 13 11 10 10 9 8 7 6 4 3 1 0 0 0 0 0 0 0 0 0 0 0 0 0 0 0 0 0 0 0 0 0 0 0 0 0 0 0 0 0
10 11 12 13 12 11 12 12 10 9 8 7 5 3 1 0 0 0 0 0 0 0 0 0 0 0 0 0 0 0 0 0 0 0 0 0 0 0 0 0 0 0 0
12 12 13 14 14 13 13 13 12 11 11 11 10 6 3 1 0 0 0 0 0 0 0 0 0 0 0 0 0 0 0 0 0 0 0 0 0 0 0 0 0 0 0
14 13 14 15 16 16 15 14 13 13 13 14 13 9 6 3 1 0 0 0 0 0 0 0 0 0 0 0 0 0 0 0 0 0 0 0 0 0 0 0 0 0 0
17 16 15 16 17 18 17 16 14 13 13 14 13 11 9 6 3 2 1 1 1 0 0 0 0 0 0 0 0 0 0 0 0 0 0 0 0 0 0 0 0 0 0
19 18 17 17 18 19 19 17 15 12 12 12 12 12 11 9 7 5 3 2 2 1 0 0 0 0 0 0 0 0 0 0 0 0 0 0 0 0 0 0 0 0 0
19 19 18 18 19 19 19 17 14 12 11 11 11 10 9 9 9 6 4 3 2 1 0 0 0 0 0 0 0 0 0 0 0 0 0 0 0 0 0 0 0 0 0
19 19 19 19 18 18 18 16 14 12 12 11 9 8 7 7 7 5 3 1 1 0 0 0 0 0 0 0 0 0 0 0 0 0 0 0 0 0 0 0 0 0 0
19 18 18 17 16 16 16 15 14 12 11 10 8 7 6 6 5 3 1 0 0 0 0 0 0 0 0 0 0 0 0 0 0 0 0 1 1 1 0 0 0 0 0
17 17 17 16 15 16 15 14 13 12 11 9 8 7 7 6 4 2 1 0 0 0 0 0 0 0 0 0 0 0 0 0 0 0 0 1 2 1 0 0 0 0 0
17 17 16 15 15 16 16 14 13 11 10 9 9 8 8 6 4 2 1 0 0 0 0 0 0 0 0 0 0 0 0 0 0 0 0 1 2 2 1 0 0 0 0
19 18 16 14 15 16 16 14 12 11 10 9 8 8 7 6 4 2 1 0 0 0 0 0 0 0 0 0 0 0 0 0 0 0 0 1 2 2 1 0 0 0 0
19 18 15 13 13 15 15 14 12 10 9 8 7 7 6 6 4 3 1 0 0 0 0 0 0 0 0 0 0 0 0 0 0 0 0 0 1 1 1 0 0 0 0
17 16 14 13 12 14 15 14 11 10 9 7 6 6 6 6 5 3 1 0 0 0 0 0 0 0 0 0 0 0 0 0 0 0 0 0 0 0 0 0 0 0 0
14 14 13 13 12 14 15 12 10 10 9 8 7 6 6 6 5 3 1 0 0 0 0 0 0 0 0 0 0 0 0 0 0 0 0 0 0 0 0 0 0 0 0
13 13 13 13 13 13 13 11 8 8 9 8 8 7 7 6 5 2 0 0 0 0 0 0 0 0 0 0 0 0 0 0 0 0 0 0 0 0 0 0 0 0 0
12 13 13 14 13 12 11 10 8 7 8 8 8 8 7 6 5 2 0 0 0 0 0 0 0 0 0 0 0 0 0 0 0 0 0 0 0 0 0 0 0 0 0
11 12 13 13 13 12 11 10 8 7 7 7 8 8 7 6 4 2 1 0 0 0 0 0 0 0 0 0 0 0 0 0 0 0 0 0 0 0 0 0 0 0 0
10 11 11 11 12 12 12 10 8 7 6 6 7 7 7 6 4 2 1 0 0 0 0 0 0 0 0 0 0 0 0 0 0 0 0 0 0 0 0 0 0 0 0
9 9 9 10 11 12 11 10 8 7 7 6 6 7 7 6 4 2 1 0 0 0 0 0 0 0 0 0 0 0 0 0 0 0 0 0 0 0 0 0 0 0 0
6 7 8 9 10 10 10 10 9 8 7 6 6 6 6 6 5 3 1 0 0 0 0 0 0 0 0 0 0 0 0 0 0 0 0 0 0 0 0 0 0 0 0
5 6 7 9 9 10 10 9 9 8 7 6 6 6 6 6 6 5 3 1 0 0 0 0 0 0 0 0 0 0 0 0 0 0 0 0 0 0 0 0 0 0 0
4 4 6 7 9 9 10 8 7 6 4 4 4 5 6 6 6 5 3 1 0 0 0 0 0 0 0 0 0 0 0 0 0 0 0 0 0 0 0 0 0 0 0
3 4 5 6 8 9 10 8 5 3 2 3 4 4 4 4 5 5 4 2 1 0 0 0 0 0 0 0 0 0 0 0 0 0 0 0 0 0 0 0 0 0 0
Wind_Speed
6 7 13 14 14 13 13 13 13 13 13 13 14 14 13 13 13 13 13 13 12 13 13 14 15 15 15 16 16 16 16 16 16 16 15 15 16 16 16 16 14 11 17
9 10 14 14 14 13 13 13 13 13 12 13 13 13 13 13 13 13 12 12 12 13 13 14 14 15 15 15 16 15 16 16 15 15 13 12 13 15 16 15 14 11 17
11 10 13 14 14 13 13 13 13 13 12 12 13 13 13 13 12 12 12 12 12 12 13 14 14 14 14 14 15 15 15 15 15 14 12 6 9 15 16 15 15 16 16
11 10 11 14 14 14 13 13 13 13 12 12 12 12 12 12 12 12 11 11 12 12 12 13 14 13 13 14 14 14 14 14 13 12 6 5 6 13 15 15 15 16 16
9 8 11 14 14 14 13 13 13 12 12 12 12 11 12 11 11 11 10 11 12 12 12 12 13 13 13 13 13 14 13 13 12 9 5 5 5 12 14 14 15 15 15
9 8 10 14 14 14 13 13 13 12 12 12 11 11 11 11 11 11 11 11 11 11 11 12 12 12 12 12 13 13 13 13 10 6 5 5 5 12 14 14 14 14 14
8 7 9 13 14 14 13 12 12 12 12 12 11 11 11 11 11 11 11 11 11 11 11 11 11 12 12 12 12 13 12 11 7 5 5 4 6 12 13 13 13 13 14
8 7 8 12 12 13 13 12 11 11 11 11 11 11 11 11 11 11 11 11 10 10 10 10 11 11 11 12 12 12 12 9 8 6 4 4 8 11 12 12 12 13 13
7 7 6 7 8 10 11 10 11 11 10 10 10 10 10 10 10 10 10 10 10 10 10 10 11 11 11 11 12 11 11 10 6 4 4 3 7 11 12 12 12 12 12
5 5 6 6 6 6 6 9 9 9 9 9 9 9 8 9 9 9 8 9 9 9 9 9 10 11 11 11 11 11 10 8 5 4 3 4 8 10 11 11 11 11 11
5 4 5 6 5 5 5 7 7 8 8 8 7 8 7 5 5 5 6 8 9 9 9 9 10 10 10 10 10 10 7 3 4 3 3 6 9 9 10 10 10 10 10
8 6 5 6 6 5 5 4 4 4 5 5 4 5 4 4 4 5 6 8 8 8 8 9 9 9 7 4 6 7 3 4 3 2 3 7 8 9 10 10 9 9 9
9 7 6 5 6 6 4 4 3 3 3 4 5 5 4 4 3 4 3 4 5 6 5 6 5 4 4 3 3 3 4 3 2 2 3 7 8 8 9 9 9 9 9
8 7 6 5 5 6 5 4 4 3 3 3 4 5 5 3 3 3 2 3 3 3 4 3 3 4 4 4 4 4 4 3 2 2 3 6 7 8 8 8 8 9 9
8 7 7 6 6 6 5 4 4 3 4 4 3 4 5 4 4 3 3 3 3 3 3 4 4 4 4 4 4 4 4 3 3 3 2 5 6 7 7 7 7 8 8
8 7 6 7 6 5 5 4 4 4 4 4 3 4 5 4 4 4 4 3 3 3 3 4 4 4 3 3 4 3 3 3 3 3 2 3 5 5 6 6 6 7 7
8 7 7 7 6 6 6 5 4 4 4 4 4 4 5 5 5 4 4 3 3 3 4 4 4 4 4 3 4 3 3 3 3 3 3 2 3 4 5 5 5 5 6
7 7 7 6 6 6 5 5 4 4 4 4 4 4 5 5 5 5 4 4 3 4 4 4 4 4 3 3 3 2 2 2 3 3 3 3 2 2 3 5 4 4 4
7 7 7 6 7 6 5 4 4 4 4 4 4 4 5 5 6 5 4 4 4 4 4 4 3 3 4 3 3 2 2 2 2 2 3 3 2 2 2 3 5 5 4
6 7 7 6 6 6 4 4 3 3 3 3 3 4 5 5 6 5 4 5 5 4 4 4 4 3 3 3 4 3 2 2 2 2 2 2 2 2 2 2 2 3 4
5 6 7 7 6 5 4 5 5 4 3 3 3 4 5 5 6 5 4 5 5 4 5 5 4 4 3 3 3 2 2 2 2 2 1 1 2 2 2 2 2 1 2
5 6 7 7 7 6 5 4 4 4 3 3 3 4 5 6 6 5 5 5 5 5 5 5 5 3 2 2 3 3 1 1 2 2 1 1 1 1 2 2 2 2 1
3 5 6 6 7 6 5 4 4 3 2 2 3 3 4 5 6 6 6 5 5 5 6 6 6 5 4 2 2 3 3 3 1 1 1 1 1 1 1 1 1 1 1
2 3 4 5 5 5 6 6 7 6 5 4 4 4 4 5 6 6 6 6 6 5 6 6 5 4 6 4 2 1 2 3 3 1 1 0 0 1 1 1 1 1 1
1 2 3 4 4 5 5 6 6 5 3 3 3 4 4 4 5 5 6 6 6 5 6 6 5 4 4 4 4 2 2 1 2 2 1 1 0 0 1 1 1 0 1
2 2 2 4 3 3 4 5 6 6 5 5 4 5 4 3 3 5 5 5 5 5 6 6 6 6 5 4 3 3 3 3 3 3 2 1 1 1 0 0 1 1 0
Wind_Direction
166 164 159 149 144 137 132 127 122 119 117 118 118 116 115 113 110 109 107 106 106 105 105 104 102 99 97 96 94 92 91 89 88 86 85 86 89 89 86 83 81 78 83
151 158 156 150 146 141 135 131 126 123 120 120 121 121 120 118 115 113 111 109 108 108 106 105 103 101 99 97 97 95 93 91 90 87 82 82 88 91 89 86 85 86 85
144 154 153 149 146 142 138 133 130 128 125 124 124 123 122 119 117 116 113 111 109 108 106 105 103 102 100 99 99 98 96 94 91 86 79 74 88 93 91 89 88 87 87
145 149 150 148 146 143 140 137 135 132 128 125 126 125 122 120 118 116 115 112 110 106 104 105 104 104 103 102 101 100 97 96 92 86 73 67 81 94 93 93 90 89 88
142 146 150 149 147 145 143 141 139 136 132 128 126 125 123 120 119 117 114 113 109 104 104 105 105 105 105 104 103 101 98 96 90 81 71 67 74 93 93 93 92 90 89
140 143 150 148 147 145 144 142 141 139 137 131 127 124 124 124 121 117 113 109 108 106 106 107 107 107 106 107 106 102 99 97 86 76 71 71 79 94 94 96 96 93 91
141 142 149 149 148 146 145 142 141 141 138 134 129 125 126 125 122 117 113 110 108 108 109 110 110 109 108 108 108 104 101 97 89 80 74 74 89 98 96 96 96 95 91
142 141 146 150 148 147 146 142 140 140 138 134 132 128 127 124 120 117 115 114 112 111 110 113 113 113 112 109 108 106 102 98 93 86 79 78 95 98 97 95 94 93 92
137 138 141 145 145 145 143 142 141 138 134 131 129 124 122 119 118 117 115 114 114 115 111 114 115 113 111 109 107 104 99 94 89 86 89 86 98 100 99 95 93 94 92
132 139 140 136 136 138 140 140 138 135 132 128 122 117 114 114 113 110 111 111 111 113 113 112 114 113 109 107 105 100 94 89 84 83 85 97 102 104 103 99 95 95 93
147 145 144 140 136 134 137 137 133 131 127 121 116 113 109 107 106 102 103 107 108 108 111 113 113 111 105 101 101 96 89 81 85 79 84 104 107 107 105 102 98 96 96
170 166 153 149 146 141 139 131 126 121 121 116 115 115 108 107 103 102 97 98 99 98 102 103 102 105 99 93 94 91 84 83 82 79 89 104 109 110 107 104 101 100 97
171 167 161 158 153 147 139 134 126 120 118 117 121 119 114 107 103 94 97 93 92 91 88 90 84 85 94 98 94 89 89 87 82 76 91 104 107 109 109 108 106 105 102
170 171 166 158 156 152 145 141 138 133 133 133 133 129 125 119 112 112 108 105 99 98 97 91 93 93 93 94 98 97 92 92 82 72 82 94 102 106 106 108 107 105 102
175 173 172 163 161 157 148 149 145 144 142 140 136 137 135 133 132 127 122 113 108 108 111 106 103 104 99 93 93 99 97 91 83 72 70 79 89 97 100 106 106 105 102
181 177 171 167 163 157 155 154 153 151 144 140 144 147 144 140 140 137 127 122 121 121 119 117 115 112 103 102 94 92 91 89 85 83 71 63 69 86 96 103 107 107 105
183 176 172 170 161 160 160 160 156 155 150 151 153 154 150 144 144 140 136 134 135 127 118 111 103 101 102 96 87 83 87 87 89 89 80 65 58 64 81 95 97 103 103
180 177 176 172 165 164 166 162 159 158 155 157 154 154 154 149 148 143 142 145 143 131 126 125 119 110 104 100 90 74 75 83 85 90 88 78 71 59 61 74 82 88 92
184 179 176 172 170 169 168 162 159 155 157 157 151 151 156 154 152 147 146 147 146 134 132 136 124 121 121 110 100 79 66 73 79 85 87 85 80 72 58 57 64 70 74
178 176 176 171 171 165 158 153 147 145 153 151 153 155 157 156 153 146 144 147 148 141 137 133 129 111 121 122 104 79 56 55 63 70 79 82 82 80 70 62 57 56 60
169 174 177 171 170 164 165 169 166 169 167 162 162 159 160 158 156 151 149 152 154 155 153 143 132 124 110 117 100 79 44 46 57 48 53 74 75 78 79 77 74 63 44
176 180 180 178 174 174 177 177 166 157 163 166 160 161 165 162 160 159 156 160 160 154 152 151 142 136 135 142 128 116 83 0 10 28 39 82 83 76 76 79 87 79 63
173 183 184 182 176 173 163 150 130 120 120 142 162 170 173 170 166 164 165 163 165 166 168 169 162 153 158 167 135 138 149 197 268 334 2 80 97 91 87 84 89 75 63
193 180 173 173 169 168 163 160 158 165 172 178 173 172 172 175 173 170 168 168 170 173 172 177 173 166 160 167 161 115 138 149 153 204 317 323 98 120 127 100 80 59 44
151 152 160 154 154 159 167 168 166 165 166 152 152 160 172 179 179 174 172 172 175 176 177 177 174 173 172 171 165 152 126 98 122 146 217 272 319 241 176 165 138 107 27
95 111 126 135 141 152 158 165 171 167 159 154 162 171 178 179 183 179 178 180 182 181 181 183 182 181 185 178 171 165 160 161 167 156 172 207 239 280 269 188 194 204 177